Location: York
(31.8935°S, 116.7682°E)
Time: 14:15:19
(UTC+08:00)

ISS - Visible Passes

Search period start: 04 August 2020 00:00
Search period end: 14 August 2020 00:00
Orbit: 418 x 420 km, 51.6° (Epoch: 04 August)

Date Brightness Start Highest point End Pass type
(mag) Time Alt. Az. Time Alt. Az. Time Alt. Az.
06 Aug -0.7 06:21:36 10° SSE 06:21:40 10° SSE 06:21:43 10° SSE visible
08 Aug -1.7 06:20:49 10° SSW 06:23:40 24° SE 06:26:29 10° E visible
09 Aug -1.1 05:33:49 10° S 05:35:54 15° SSE 05:37:59 10° ESE visible
10 Aug -3.6 06:21:55 10° SW 06:25:21 79° SE 06:28:43 10° NE visible
11 Aug -2.6 05:35:48 21° SSW 05:37:42 40° SE 05:40:56 10° ENE visible
12 Aug -1.5 04:50:30 23° SE 04:50:30 23° SE 04:52:48 10° E visible
12 Aug -2.4 06:23:51 10° WSW 06:26:43 25° NW 06:29:34 10° N visible
13 Aug -3.5 05:38:18 38° W 05:39:11 50° NW 05:42:29 10° NNE visible
